Flag for Germany Weather past 2 weeks in Memmingen, Bavaria, Germany

Now
27 °F

Overcast.


Feels Like: 27 °F
Forecast: 26 / 33 °F
Wind: 2 mph from South

Location: Kempten

Current Time: Jan 25, 2015 at 8:23:04 PM

Latest Report: Jan 25, 2015 at 8:00 PM


Visibility: 9 mi

Pressure: 30.47 "Hg

Humidity: 87%

Dew point: 24 °F

Location of MemmingenLocation

Historic Weather in Memmingen — Graph

°F

Memmingen temperature yesterday

Maximum temperature yesterday: 33 °F (at 1:00 PM)
Minimum temperature yesterday: 29 °F (at 5:00 AM)
Average temperature yesterday: 30 °F

Past Weeks' High & Low Weather Summary

 TemperatureHumidityPressure
High54 °F (Jan 10, 7:00 PM)99% (Jan 11, 9:00 AM)30.47 "Hg (Jan 11, 9:00 AM)
Low18 °F (Jan 19, 9:00 AM)25% (Jan 13, 1:00 PM)29.70 "Hg (Jan 16, 4:00 PM)
Average33 °F82%30.07 "Hg
* Reported Jan 10 7:00 PM — Jan 25 7:00 PM, Memmingen, Weather by CustomWeather, © 2014

Note: Actual official high and low records may vary slightly from our data, if they occured in-between our weather recording intervals... More about our weather records

Advertising

Memmingen weather history for previous 24 hours

 ConditionsComfort  
Time TempWeatherWind HumidityBarometerVisibility
7:00 PM
Jan 25
28 °FOvercast.1 mph87%30.47 "Hg8 mi
6:00 PM29 °FOvercast.1 mph80%30.45 "Hg11 mi
5:00 PM30 °FOvercast.No wind76%30.44 "Hg19 mi
4:00 PM31 °FOvercast.2 mph72%30.43 "Hg19 mi
3:00 PM31 °FOvercast.1 mph73%30.42 "Hg14 mi
2:00 PM31 °FOvercast.2 mph74%30.43 "Hg12 mi
1:00 PM31 °FOvercast.2 mph77%30.44 "Hg10 mi
12:00 PM30 °FOvercast.2 mph81%30.45 "Hg9 mi
11:00 AM29 °FOvercast.3 mph84%30.45 "Hg9 mi
9:00 AM29 °FLow clouds.2 mph92%30.42 "Hg7 mi
8:00 AM28 °FLight snow. Low clouds.2 mph95%30.40 "Hg2 mi
7:00 AM28 °FSnow. Low clouds.No wind95%30.38 "Hg1 mi
6:00 AM28 °FSnow. Low clouds.2 mph95%30.36 "Hg1 mi
3:00 AM29 °FLight snow. Overcast.3 mph85%30.31 "Hg1 mi
2:00 AM30 °FLight snow. Overcast.3 mph85%30.29 "Hg3 mi
1:00 AM30 °FOvercast.2 mph81%30.27 "Hg6 mi
12:00 AM31 °FOvercast.2 mph83%30.27 "Hg6 mi
11:00 PM
Jan 24
31 °FOvercast.1 mph83%30.26 "Hg6 mi
9:00 PM30 °FOvercast.2 mph85%30.24 "Hg5 mi
8:00 PM30 °FOvercast.2 mph85%30.23 "Hg6 mi
Weather by CustomWeather, © 2014

See weather overviewHow to use our weather pages